Date,TemperatureHighF,TemperatureAvgF,TemperatureLowF,DewpointHighF,DewpointAvgF,DewpointLowF,HumidityHigh,HumidityAvg,HumidityLow,PressureMaxIn,PressureMinIn,WindSpeedMaxMPH,WindSpeedAvgMPH,GustSpeedMaxMPH,PrecipitationSumIn
2013-1-1,41.7,35.7,31.2,34.7,32.2,29.6,96,87,73,30.46,30.31,6,1,9,0.01
2013-1-2,47.0,36.0,30.3,35.9,30.9,25.8,96,83,48,30.31,30.15,6,0,11,0.01
2013-1-3,46.7,36.6,29.0,36.8,30.0,24.9,97,79,43,30.16,30.04,12,1,15,0.01
2013-1-4,49.2,44.0,37.7,45.3,41.8,36.9,98,92,84,30.25,30.11,12,2,17,0.01
2013-1-5,45.6,43.6,41.1,41.2,38.7,35.3,95,83,71,30.15,30.06,13,2,15,0.01
2013-1-6,45.9,43.3,40.6,42.7,40.5,39.0,95,90,82,30.13,29.93,15,5,20,0.01
2013-1-7,51.4,47.4,41.7,48.2,44.5,40.3,100,90,82,30.10,29.73,25,8,33,0.01
2013-1-8,53.5,47.8,42.1,50.0,45.4,41.0,98,92,84,30.10,29.68,33,8,41,0.01
2013-1-9,51.4,42.5,37.1,49.3,40.4,35.0,96,92,85,29.89,29.62,25,6,34,0.01
2013-1-10,39.6,37.2,32.4,36.9,34.6,30.3,94,90,78,30.06,29.88,7,1,11,0.01
2013-1-11,35.3,31.8,29.1,31.8,28.9,27.2,97,89,76,30.27,30.06,6,1,9,0.01
2013-1-12,36.8,30.8,27.4,30.3,27.3,25.3,98,88,65,30.40,30.27,11,1,13,0.01
2013-1-13,36.1,31.3,26.8,30.9,28.0,25.5,96,88,71,30.45,30.39,5,0,6,0.01
2013-1-14,37.7,35.4,33.3,33.8,31.0,28.4,89,84,77,30.52,30.43,7,1,7,0.01
2013-1-15,43.2,37.9,33.7,36.3,33.5,31.6,93,85,68,30.65,30.52,9,0,11,0.00
2013-1-16,42.5,34.4,30.1,36.6,32.4,29.3,99,93,78,30.64,30.48,5,0,7,0.01
2013-1-17,37.1,33.9,30.5,36.8,33.3,30.0,99,98,95,30.48,30.25,5,1,6,0.00
2013-1-18,37.3,34.5,32.5,37.2,34.3,32.2,100,99,98,30.31,30.22,7,1,10,0.00
2013-1-19,35.5,33.6,31.4,34.8,33.2,31.1,100,99,96,30.35,30.30,7,2,10,0.00
2013-1-20,39.0,34.6,32.3,37.5,34.1,32.0,100,99,94,30.35,30.22,6,2,7,0.00
2013-1-21,36.1,33.4,31.3,36.0,33.2,31.0,100,99,99,30.24,30.10,9,1,9,0.00
2013-1-22,38.9,35.2,31.6,37.8,34.3,31.3,100,97,90,30.10,29.86,5,1,5,0.00
2013-1-23,43.6,41.7,38.9,41.8,38.8,34.4,97,89,76,30.08,29.80,12,2,15,0.02
2013-1-24,45.5,43.0,40.8,42.0,39.7,36.9,97,89,72,30.16,30.01,11,2,14,0.02
2013-1-25,51.3,46.2,42.4,45.4,43.4,39.8,99,90,75,30.02,29.88,14,3,18,0.01
2013-1-26,45.4,43.2,40.9,41.5,40.2,38.9,96,89,83,29.97,29.84,16,4,23,0.01
2013-1-27,43.1,41.8,40.3,40.4,39.0,37.3,96,90,84,30.01,29.93,20,5,25,0.01
2013-1-28,43.0,41.5,39.8,42.3,40.2,38.4,100,95,92,30.03,29.95,7,1,11,0.01
2013-1-29,47.9,45.0,42.3,46.1,44.0,41.5,98,96,91,30.28,30.03,18,3,21,0.01
2013-1-30,47.9,46.5,44.6,47.8,46.2,43.9,100,99,97,30.33,30.27,7,1,10,0.01
2013-1-31,49.8,47.6,46.3,47.0,46.1,45.1,100,95,85,30.34,30.25,16,3,23,0.01
2013-2-1,50.1,45.9,42.8,46.8,44.4,41.7,99,95,84,30.35,30.28,10,1,11,0.01
2013-2-2,42.8,40.6,38.7,42.2,39.9,38.2,99,97,95,30.33,30.21,10,2,12,0.01
2013-2-3,47.6,44.0,39.2,44.5,42.4,38.6,99,94,87,30.24,30.15,8,2,12,0.01
2013-2-4,49.5,46.6,44.6,44.8,43.2,42.1,95,88,76,30.15,29.83,10,2,13,0.01
2013-2-5,50.9,46.8,45.0,43.8,43.0,41.8,95,87,73,29.87,29.79,26,8,30,0.01
2013-2-6,50.2,46.1,43.9,43.3,41.8,39.6,92,85,68,30.00,29.73,21,6,29,0.01
2013-2-7,49.5,44.8,38.3,42.1,38.3,35.9,93,79,62,30.13,29.74,24,6,30,0.01
2013-2-8,44.6,40.6,36.1,40.2,37.8,35.4,98,90,76,30.25,30.14,5,0,6,0.01
2013-2-9,44.3,42.4,40.6,41.8,40.0,38.0,96,91,80,30.28,30.21,5,0,7,0.01
2013-2-10,45.8,40.7,35.2,41.4,38.4,34.9,100,92,71,30.33,30.28,9,1,12,0.01
2013-2-11,47.0,43.9,41.3,42.9,40.9,39.4,97,89,78,30.31,30.28,10,1,13,0.01
2013-2-12,50.6,47.3,44.7,46.7,45.2,42.5,98,93,83,30.36,30.25,19,5,26,0.01
2013-2-13,49.4,46.2,45.3,46.3,43.2,41.4,96,89,84,30.45,30.26,11,2,18,0.01
2013-2-14,48.1,45.7,43.5,45.7,43.5,41.4,100,92,86,30.51,30.45,10,1,11,0.01
2013-2-15,55.7,45.5,40.6,46.6,43.2,40.3,100,92,70,30.51,30.20,9,2,10,0.01
2013-2-16,52.6,46.2,42.3,45.2,42.3,39.4,97,87,65,30.14,30.06,22,5,27,0.01
2013-2-17,45.2,42.5,40.8,40.3,38.5,36.7,94,86,73,30.19,30.06,11,2,12,0.01
2013-2-18,45.4,42.6,40.1,40.2,38.7,36.4,94,86,71,30.06,29.71,18,2,18,0.01
2013-2-19,49.2,43.2,37.3,39.5,37.8,33.5,95,82,55,29.96,29.68,11,1,15,0.01
2013-2-20,44.6,40.6,36.1,40.6,38.0,34.3,97,91,80,29.99,29.94,16,2,21,0.01
2013-2-21,44.7,42.4,40.4,40.6,39.5,38.2,97,90,83,30.01,29.95,27,8,33,0.01
2013-2-22,45.0,42.3,40.1,41.6,37.9,35.1,92,84,78,29.85,29.67,33,11,37,0.01
2013-2-23,47.3,43.0,40.4,39.9,37.9,35.7,94,82,66,30.33,29.85,13,5,19,0.01
2013-2-24,47.9,45.0,41.3,39.1,37.4,36.1,87,75,64,30.33,29.90,24,8,28,0.01
2013-2-25,51.9,44.8,40.7,40.5,37.3,30.9,92,76,45,30.25,29.82,28,9,35,0.01
2013-2-26,47.4,43.7,38.8,37.9,35.8,32.8,88,74,58,30.29,30.14,17,5,22,0.01
2013-2-27,47.5,44.2,40.9,44.3,41.3,38.0,100,90,77,30.25,30.15,14,2,18,0.01
2013-2-28,53.0,47.5,43.1,51.3,46.3,42.2,98,96,93,30.27,30.14,18,4,24,0.01
2013-3-1,57.5,54.3,51.6,51.5,50.6,49.3,97,88,79,30.31,30.22,23,9,29,0.01
2013-3-2,55.8,49.8,39.9,49.9,45.6,37.7,95,86,75,30.22,30.02,23,8,30,0.01
2013-3-3,48.6,41.7,37.4,39.4,36.5,31.7,95,83,54,30.27,30.16,12,2,16,0.01
2013-3-4,53.2,42.6,33.2,35.3,32.1,28.5,94,69,40,30.27,29.88,14,3,18,0.01
2013-3-5,49.2,44.8,39.6,41.3,37.3,31.3,90,75,55,29.88,29.69,9,1,13,0.01
2013-3-6,44.2,42.9,41.4,41.9,40.3,38.7,96,91,82,29.85,29.54,11,2,16,0.01
2013-3-7,51.1,44.9,40.8,43.6,41.7,39.7,97,89,68,30.05,29.85,13,1,15,0.01
2013-3-8,51.5,42.1,35.5,42.5,38.7,34.9,99,89,68,30.20,30.04,11,1,13,0.01
2013-3-9,50.9,40.5,34.4,43.1,38.2,33.8,100,92,70,30.45,30.20,8,0,9,0.01
2013-3-10,46.1,43.2,39.5,43.2,40.3,37.3,95,90,82,30.45,30.39,9,1,9,0.01
2013-3-11,49.9,46.2,42.9,46.9,43.4,41.2,97,90,77,30.40,30.13,5,1,10,0.01
2013-3-12,55.5,52.3,48.5,51.4,49.2,46.6,96,90,75,30.12,30.02,30,12,33,0.01
2013-3-13,52.7,51.5,50.2,51.1,49.5,48.2,97,93,88,30.17,30.06,25,7,32,0.01
2013-3-14,53.4,50.6,47.9,50.0,47.6,44.8,98,90,74,30.10,29.99,14,4,22,0.01
2013-3-15,57.7,52.3,48.3,50.0,48.9,47.3,98,89,75,30.16,30.09,20,6,25,0.01
2013-3-16,50.1,46.2,40.4,45.5,40.5,36.5,89,81,68,29.97,29.83,23,10,31,0.01
2013-3-17,47.9,42.3,39.6,38.7,36.3,33.9,92,80,61,30.15,29.93,15,5,22,0.01
2013-3-18,51.3,44.2,40.4,41.1,37.5,33.6,94,78,51,30.20,30.06,24,6,36,0.01
2013-3-19,53.9,43.4,37.8,42.4,37.3,31.5,95,80,47,30.19,29.55,15,2,21,0.01
2013-3-20,51.2,46.7,40.7,49.5,41.9,34.2,97,84,71,29.96,29.34,34,10,40,0.01
2013-3-21,46.5,40.6,36.9,38.1,35.5,34.2,94,83,64,30.18,29.97,15,5,18,0.01
2013-3-22,45.0,39.2,35.5,35.8,33.3,28.2,95,81,52,30.34,30.18,12,2,14,0.01
2013-3-23,49.2,40.7,35.9,34.9,32.1,25.8,92,73,40,30.36,30.26,5,1,10,0.01
2013-3-24,54.3,42.6,33.9,39.2,33.8,30.4,93,74,40,30.26,30.08,6,0,7,0.01
2013-3-25,61.4,49.6,36.2,39.6,34.0,29.6,87,58,35,30.09,29.89,10,0,12,0.01
2013-3-26,59.0,51.1,46.2,43.5,40.0,36.7,83,67,45,29.98,29.91,10,1,10,0.01
2013-3-27,54.4,49.3,45.7,47.9,43.1,36.2,96,79,58,29.95,29.90,0,0,0,0.01
2013-3-28,60.8,51.2,44.5,49.2,46.6,43.7,98,86,58,30.11,29.95,0,0,0,0.01
2013-3-29,63.5,52.5,45.3,48.8,45.9,43.9,97,80,51,30.21,30.11,0,0,0,0.01
2013-3-30,64.7,53.4,43.7,48.8,45.7,42.4,96,77,50,30.22,30.04,11,1,15,0.01
2013-3-31,68.8,55.0,44.6,49.4,45.7,42.6,94,73,47,30.04,29.87,9,0,13,0.00
2013-4-1,61.5,53.3,48.4,49.8,47.6,44.9,94,82,65,30.12,29.93,14,2,22,0.01
2013-4-2,55.7,52.2,49.5,48.9,46.8,45.2,92,82,75,30.16,30.11,13,3,17,0.01
2013-4-3,60.7,52.9,46.6,49.5,46.2,44.1,95,80,56,30.15,29.91,6,0,12,0.00
2013-4-4,57.3,53.0,50.4,54.1,49.9,46.6,98,90,82,29.91,29.60,16,2,24,0.15
2013-4-5,56.6,52.8,49.2,52.0,49.4,46.5,96,88,75,29.82,29.68,29,9,33,0.07
2013-4-6,51.6,48.4,45.9,48.2,45.0,42.5,96,88,77,29.89,29.66,24,9,31,0.05
2013-4-7,46.0,43.8,40.9,43.8,41.8,38.8,95,93,90,29.83,29.45,11,2,17,0.03
2013-4-8,53.1,47.5,43.1,47.6,43.9,40.7,96,88,73,30.21,29.84,8,2,10,0.01
2013-4-9,53.6,49.5,43.5,46.0,43.0,38.3,94,79,61,30.30,30.14,13,2,16,0.00
2013-4-10,57.5,52.4,48.7,50.6,46.6,43.2,95,81,70,30.22,29.90,21,7,28,0.02
2013-4-11,50.9,47.9,44.5,43.7,41.0,37.5,95,78,61,30.27,30.14,13,4,17,0.02
2013-4-12,46.7,44.5,41.7,44.7,40.4,37.3,96,86,72,30.14,29.62,19,6,28,0.07
2013-4-13,47.9,43.2,38.8,43.3,39.7,35.6,96,88,77,29.95,29.71,21,6,27,0.30
2013-4-14,52.6,45.2,40.3,41.2,38.8,33.0,100,80,48,29.96,29.86,14,2,21,0.01
2013-4-15,54.2,46.2,41.2,41.8,40.3,36.6,94,81,52,30.13,29.90,22,2,27,0.00
2013-4-16,54.5,45.5,38.8,42.9,39.8,34.3,98,82,48,30.34,30.13,24,2,26,0.02
2013-4-17,58.1,48.9,40.0,44.0,39.9,35.7,94,73,44,30.40,30.34,11,2,16,0.00
2013-4-18,51.0,47.1,45.0,47.3,42.1,39.5,91,83,75,30.40,30.29,12,5,16,0.03
2013-4-19,53.8,51.5,48.5,52.0,50.0,47.6,98,95,88,30.16,30.01,11,3,17,0.15
2013-4-20,55.0,49.6,47.2,49.9,46.6,44.7,97,90,74,30.24,30.16,15,4,19,0.05
2013-4-21,53.4,47.4,44.1,46.1,42.5,39.2,96,84,64,30.33,30.19,11,2,16,0.01
2013-4-22,59.0,48.9,39.2,42.2,36.7,25.3,97,67,28,30.48,30.33,12,2,17,0.00
2013-4-23,61.1,49.1,38.5,42.8,37.5,27.3,94,68,28,30.39,30.20,15,2,19,0.00
2013-4-24,68.0,54.2,42.8,45.6,40.4,32.4,93,64,29,30.28,30.02,14,1,17,0.00
2013-4-25,69.5,56.5,44.9,48.6,42.6,37.6,88,63,35,30.08,30.00,7,1,10,0.00
2013-4-26,65.4,53.6,48.0,51.3,48.2,46.3,95,83,58,30.20,30.09,13,2,13,0.00
2013-4-27,56.2,54.3,52.3,49.2,46.6,41.5,86,76,61,30.18,30.11,19,10,27,0.00
2013-4-28,57.7,51.2,47.6,48.6,45.7,41.5,94,83,59,30.18,29.91,22,6,29,0.01
2013-4-29,53.5,48.1,43.3,48.2,39.8,31.0,96,75,43,30.11,29.86,14,5,21,0.01
2013-4-30,53.0,45.7,38.1,39.1,35.5,30.2,90,69,43,30.39,30.11,11,3,20,0.01
2013-5-1,62.6,49.9,37.3,43.0,36.3,28.2,92,64,28,30.53,30.39,15,2,19,0.00
2013-5-2,67.1,55.4,44.5,46.0,41.9,35.3,89,63,38,30.51,30.33,15,2,21,0.00
2013-5-3,70.7,57.5,45.8,51.1,45.2,40.6,89,65,44,30.36,30.19,13,3,17,0.00
2013-5-4,76.7,63.8,51.3,52.4,46.4,37.6,81,56,25,30.20,29.96,19,3,23,0.00
2013-5-5,80.7,65.7,51.0,52.4,46.9,41.4,88,55,26,29.96,29.73,13,2,15,0.00
2013-5-6,83.8,66.7,51.9,54.1,49.0,42.6,89,58,27,29.82,29.71,11,1,15,0.00
2013-5-7,70.0,59.8,52.3,56.1,52.1,49.7,92,77,59,29.96,29.79,16,4,19,0.00
2013-5-8,62.7,56.4,52.3,55.9,51.3,49.3,91,83,70,30.11,29.96,12,2,17,0.00
2013-5-9,70.5,57.6,51.2,55.8,51.8,47.8,95,83,46,30.17,30.07,11,1,12,0.00
2013-5-10,76.2,60.2,50.8,56.1,52.1,49.2,95,77,44,30.16,30.06,6,1,11,0.00
2013-5-11,78.8,64.5,56.1,56.6,51.1,45.3,86,63,42,30.14,29.95,12,2,13,0.00
2013-5-12,68.9,62.8,59.0,58.3,56.4,53.2,94,80,66,30.06,29.99,18,5,22,0.01
2013-5-13,62.3,57.2,50.7,57.2,51.4,42.6,93,81,61,30.15,29.90,22,7,35,0.01
2013-5-14,60.9,54.2,48.1,47.9,44.3,40.3,86,71,47,30.19,30.08,10,3,16,0.00
2013-5-15,62.0,54.4,49.0,52.4,47.5,42.6,94,79,51,30.09,29.99,11,2,17,0.02
2013-5-16,68.7,59.6,53.9,53.5,51.9,46.8,95,77,47,29.99,29.83,9,1,14,0.01
2013-5-17,62.2,57.3,54.0,52.4,49.5,45.3,90,76,58,30.02,29.92,17,6,21,0.00
2013-5-18,60.3,56.3,52.7,49.9,48.0,45.9,88,74,62,30.23,30.03,13,3,19,0.00
2013-5-19,64.0,57.2,53.8,52.0,49.7,47.7,88,77,57,30.36,30.24,10,2,16,0.00
2013-5-20,65.2,55.3,48.3,52.8,49.2,46.5,95,81,62,30.31,29.86,10,2,14,0.00
2013-5-21,56.2,50.7,47.0,49.5,46.4,44.4,95,85,66,29.86,29.74,15,3,20,0.07
2013-5-22,53.1,48.8,45.1,47.7,45.5,43.0,96,89,77,29.90,29.82,13,4,16,0.01
2013-5-23,54.6,50.1,46.3,47.3,45.2,42.1,95,84,68,29.98,29.89,17,2,22,0.01
2013-5-24,61.4,53.7,48.3,50.6,47.1,44.8,95,80,55,30.02,29.94,14,3,19,0.01
2013-5-25,61.9,55.6,51.3,50.7,48.0,44.4,89,76,55,30.01,29.94,11,2,14,0.00
2013-5-26,62.2,55.7,51.0,54.5,51.3,48.9,96,86,70,29.96,29.91,11,1,20,0.01
2013-5-27,59.0,56.0,52.7,55.9,53.2,49.8,95,91,82,29.94,29.68,10,2,16,0.05
2013-5-28,60.5,56.3,53.0,52.5,50.4,48.1,93,81,69,29.85,29.74,21,6,24,0.00
2013-5-29,60.2,53.9,50.2,51.7,49.7,48.3,96,86,67,29.93,29.65,21,3,22,0.01
2013-5-30,59.5,54.4,50.0,49.4,47.4,45.9,88,78,63,30.11,29.93,18,9,27,0.00
2013-5-31,65.3,60.5,55.0,49.5,46.0,42.4,78,60,45,30.31,30.21,14,2,14,0.00
2013-6-1,70.4,59.9,53.7,52.2,48.8,44.3,84,68,44,30.21,30.02,10,1,11,0.00
2013-6-2,67.5,60.4,54.3,54.8,51.0,47.2,89,72,50,30.06,30.01,11,2,14,0.01
2013-6-3,70.9,59.9,52.4,55.6,52.3,50.0,93,78,52,30.09,30.02,10,2,15,0.00
2013-6-4,77.0,64.8,53.1,58.6,53.0,47.6,93,68,43,30.10,29.99,8,1,15,0.00
2013-6-5,75.5,65.2,56.4,59.2,54.1,49.3,83,68,50,30.06,29.99,11,1,15,0.00
2013-6-6,78.1,65.6,55.6,56.5,51.7,45.5,91,64,36,30.02,29.97,15,1,16,0.00
2013-6-7,66.9,61.0,56.4,56.7,51.0,44.4,81,70,52,30.12,29.99,18,4,22,0.00
2013-6-8,66.1,58.7,54.2,52.5,50.1,48.1,83,74,60,30.16,30.06,12,3,14,0.00
2013-6-9,64.5,57.4,53.5,51.8,49.1,46.5,87,74,57,30.08,29.98,11,4,15,0.00
2013-6-10,67.2,59.6,51.9,51.6,48.7,44.5,85,69,47,30.00,29.83,11,3,15,0.00
2013-6-11,64.6,57.5,52.3,51.8,47.8,46.1,83,71,53,30.06,29.89,21,7,23,0.02
2013-6-12,65.4,58.2,53.8,52.1,48.6,44.8,85,71,52,30.10,30.05,17,5,20,0.00
2013-6-13,67.7,59.5,54.0,53.0,49.9,45.8,87,72,48,30.18,30.09,10,1,13,0.00
2013-6-14,64.9,58.9,55.1,52.0,49.7,48.1,81,72,58,30.20,30.03,15,5,19,0.00
2013-6-15,73.3,62.8,52.7,56.2,53.0,50.1,92,72,50,30.02,29.88,11,1,13,0.00
2013-6-16,72.5,63.6,56.1,58.2,54.8,52.3,88,74,57,30.06,29.96,12,2,15,0.00
2013-6-17,75.1,64.1,57.8,56.0,52.9,47.7,87,69,41,30.06,29.85,19,3,21,0.01
2013-6-18,71.2,62.7,56.5,55.4,51.0,44.7,91,68,40,29.95,29.84,14,3,20,0.00
2013-6-19,64.9,59.7,56.0,55.9,52.0,49.8,86,76,59,29.97,29.88,15,3,17,0.00
2013-6-20,60.6,56.9,54.2,55.1,52.5,50.1,96,86,72,30.08,29.92,15,5,17,0.33
2013-6-21,65.4,59.3,53.7,57.6,53.6,51.2,97,83,62,30.13,30.08,12,2,13,0.01
2013-6-22,75.7,64.2,54.7,58.9,54.3,50.0,93,72,45,30.09,29.81,10,1,14,0.00
2013-6-23,70.6,64.8,60.3,63.4,58.7,54.5,96,81,68,29.80,29.55,4,0,10,0.11
2013-6-24,67.4,62.0,57.2,60.8,56.4,53.8,96,83,64,29.66,29.54,18,5,26,0.02
2013-6-25,72.1,62.6,57.6,59.6,56.9,53.0,96,83,54,29.82,29.63,25,3,36,0.12
2013-6-26,70.1,63.4,58.4,61.3,58.3,56.7,96,84,68,30.03,29.80,14,2,20,0.01
2013-6-27,69.8,64.7,61.1,64.0,61.2,56.9,97,89,77,30.16,30.00,10,0,11,0.01
2013-6-28,84.8,71.7,61.3,66.3,62.9,59.7,95,76,47,30.15,30.00,9,1,14,0.00
2013-6-29,82.3,71.9,65.2,66.6,62.6,59.7,90,73,56,30.06,29.96,7,1,9,0.00
2013-6-30,90.0,76.0,62.9,67.6,63.2,57.5,86,67,38,29.99,29.80,10,1,14,0.00
2013-7-1,85.0,75.0,67.0,68.5,62.6,59.2,85,66,51,29.98,29.86,10,1,16,0.00
2013-7-2,79.1,69.7,62.3,63.2,58.1,53.2,88,68,44,30.07,29.99,14,3,24,0.00
2013-7-3,76.9,66.8,59.8,58.6,53.2,47.6,74,63,43,30.11,30.00,12,3,16,0.00
2013-7-4,69.1,62.6,58.1,56.2,54.1,51.6,86,74,58,30.08,29.99,10,2,13,0.00
2013-7-5,72.4,64.4,57.0,58.3,55.8,53.5,90,74,59,30.00,29.92,11,2,15,0.00
2013-7-6,76.5,66.3,58.4,60.2,56.7,53.2,93,73,45,29.95,29.82,10,1,21,0.00
2013-7-7,74.9,65.5,59.0,62.5,58.2,54.4,93,78,62,29.92,29.83,11,2,14,0.00
2013-7-8,78.1,64.8,57.2,60.9,56.7,53.7,89,77,48,30.05,29.90,13,3,14,0.00
2013-7-9,81.5,69.9,60.7,59.8,57.6,53.6,91,67,44,30.06,29.95,12,2,16,0.00
2013-7-10,70.1,62.9,58.8,59.0,55.2,51.4,86,77,65,30.03,29.91,14,2,17,0.00
2013-7-11,70.1,61.7,56.4,52.9,50.9,47.5,82,69,52,30.05,29.96,11,3,16,0.02
2013-7-12,71.9,69.1,66.4,55.5,53.3,50.6,63,57,54,30.07,29.97,0,0,0,0.00
2013-7-13,76.2,73.1,69.1,55.4,53.2,50.5,57,50,41,30.17,30.08,0,0,0,0.00
2013-7-14,77.3,74.3,70.1,55.2,53.5,50.7,56,49,41,30.10,29.95,0,0,0,0.00
2013-7-19,66.1,65.2,64.4,58.9,58.7,58.4,82,80,77,30.02,30.02,3,0,5,0.00
2013-7-20,64.3,59.6,57.5,58.8,56.1,55.1,93,89,82,30.03,30.02,5,1,9,0.00
2013-7-21,73.0,69.9,63.2,62.9,61.1,58.9,86,74,67,29.92,29.86,9,3,12,0.00
2013-7-22,77.9,64.7,56.6,62.0,58.0,55.1,96,81,51,30.02,29.90,11,2,11,0.00
2013-7-23,82.9,69.7,60.3,59.0,57.0,52.5,89,67,36,30.00,29.92,9,1,11,0.00
2013-7-24,83.0,71.0,62.4,57.9,54.2,49.0,77,58,36,29.99,29.94,9,1,12,0.00
2013-7-25,82.6,70.0,58.9,57.9,54.2,50.4,86,60,36,30.06,29.99,10,2,13,0.00
2013-7-26,82.3,68.7,59.0,57.8,53.0,44.3,86,60,29,30.11,30.03,16,3,18,0.00
2013-7-27,76.4,65.2,56.8,56.6,53.5,50.6,86,67,45,30.13,29.95,11,2,17,0.00
2013-7-28,67.5,59.9,54.5,56.6,54.1,52.1,92,82,67,29.99,29.91,15,4,19,0.00
2013-7-29,69.0,60.5,57.3,60.7,54.9,52.8,86,82,69,29.97,29.93,10,1,10,0.00
2013-7-30,75.5,65.0,56.9,59.8,57.0,53.7,90,76,56,30.09,29.96,11,3,13,0.00
2013-7-31,68.6,62.1,56.7,62.7,58.2,55.4,97,88,76,30.08,29.95,9,2,14,0.00
2013-8-1,66.5,61.6,56.1,59.0,56.1,53.9,94,83,72,30.02,29.99,13,5,20,0.00
2013-8-2,61.6,60.5,58.2,59.5,57.5,55.5,95,90,84,30.10,30.01,13,3,17,0.01
2013-8-3,71.6,64.6,60.1,61.8,59.3,57.9,96,84,64,30.08,30.00,8,1,9,0.00
2013-8-4,79.1,68.2,58.2,62.5,59.4,55.8,94,75,53,30.02,29.89,10,1,13,0.00
2013-8-5,84.3,70.9,60.3,61.9,59.0,54.9,93,69,37,29.95,29.88,8,0,9,0.00
2013-8-6,83.3,69.9,58.7,60.6,56.8,53.0,89,65,37,29.96,29.86,8,1,12,0.00
2013-8-7,83.6,70.0,59.0,62.6,58.0,55.3,91,68,39,29.97,29.89,9,1,12,0.00
2013-8-8,79.8,66.8,59.3,62.2,58.4,56.0,92,76,53,30.00,29.89,11,2,12,0.00
2013-8-9,80.9,70.0,60.8,62.1,57.6,53.4,84,66,46,29.91,29.79,13,1,15,0.00
2013-8-10,75.2,66.8,60.4,64.1,61.2,57.8,95,83,65,29.97,29.85,11,2,16,0.01
2013-8-11,73.3,64.9,59.0,59.7,56.5,53.9,88,75,56,30.02,29.94,11,3,15,0.00
2013-8-12,76.0,66.3,60.2,58.8,57.1,55.4,89,73,52,30.03,29.96,11,2,13,0.00
2013-8-13,79.2,67.7,60.3,60.1,57.3,55.1,88,71,45,30.06,29.88,10,1,11,0.00
2013-8-14,78.5,67.7,60.2,63.4,59.5,56.6,91,77,49,29.93,29.87,12,1,16,0.01
2013-8-15,69.0,66.8,64.2,66.3,63.9,61.8,95,91,83,29.96,29.89,8,1,9,0.01
2013-8-16,82.7,70.0,62.2,65.2,61.4,49.7,97,77,32,29.96,29.89,7,1,12,0.00
2013-8-17,76.4,68.9,64.5,62.4,59.4,56.3,84,72,60,30.04,29.96,13,3,18,0.00
2013-8-18,76.0,66.7,60.8,61.5,57.6,54.3,88,73,60,30.10,30.04,13,3,18,0.00
2013-8-19,75.9,67.0,61.8,60.7,56.7,53.0,82,70,56,30.08,30.02,12,2,16,0.00
2013-8-20,73.7,66.1,59.7,57.9,54.1,50.5,82,66,49,30.13,30.04,11,3,16,0.00
2013-8-21,77.8,67.3,56.9,58.7,54.7,50.9,90,65,49,30.06,29.89,10,1,15,0.00
2013-8-22,81.0,70.7,59.2,61.8,56.8,53.2,86,63,42,29.90,29.75,9,1,13,0.00
2013-8-23,72.8,67.0,62.3,60.5,57.8,55.3,89,73,59,29.85,29.77,18,6,21,0.00
2013-8-24,72.9,65.6,62.2,58.8,56.8,53.3,87,74,52,29.87,29.80,14,2,14,0.00
2013-8-25,71.0,64.4,57.1,60.8,56.5,53.7,90,76,58,29.90,29.82,9,1,12,0.02
2013-8-26,73.9,65.9,61.7,60.6,58.8,52.9,88,79,49,29.91,29.81,12,2,21,0.02
2013-8-27,76.6,68.2,63.3,61.8,59.6,55.7,89,75,57,29.91,29.75,12,1,14,0.01
2013-8-28,77.6,68.2,60.4,65.5,62.1,57.6,97,82,59,29.86,29.80,9,1,10,0.01
2013-8-29,71.9,67.6,64.9,67.0,64.3,61.2,96,90,78,29.97,29.82,11,2,16,0.22
2013-8-30,77.0,68.1,62.4,63.9,58.6,53.2,92,74,45,30.12,29.99,17,4,22,0.00
2013-8-31,79.3,67.4,57.6,61.7,58.8,55.5,94,76,53,30.06,29.81,7,0,13,0.00
2013-9-1,77.6,66.3,60.2,63.3,59.9,57.9,94,81,57,29.86,29.76,7,1,13,0.00
2013-9-2,79.6,72.8,65.9,61.3,59.6,57.1,80,64,50,29.89,29.82,12,2,14,0.00
2013-9-3,73.7,65.8,62.5,64.2,61.7,59.1,95,87,64,29.99,29.89,5,1,7,0.01
2013-9-4,69.3,64.8,61.3,62.8,60.8,58.9,94,87,77,30.01,29.96,10,1,13,0.01
2013-9-5,66.0,63.1,60.5,61.5,60.1,58.6,97,90,80,30.00,29.88,13,1,18,0.07
2013-9-6,70.6,64.0,60.8,63.7,61.6,60.2,99,92,78,30.08,29.89,12,2,13,0.01
2013-9-7,72.2,65.5,62.5,62.0,60.8,59.3,95,86,67,30.08,29.98,6,0,11,0.00
2013-9-8,75.9,65.9,59.0,67.2,60.6,57.5,97,84,61,30.08,29.99,8,1,11,0.00
2013-9-9,76.8,65.3,58.2,64.6,60.1,57.3,100,85,61,30.04,29.95,9,1,12,0.00
2013-9-10,77.0,66.2,57.4,64.4,60.7,56.5,98,84,64,29.97,29.85,11,2,14,0.00
2013-9-11,90.2,73.3,60.6,66.4,61.9,57.8,94,71,37,29.91,29.83,6,0,11,0.00
2013-9-12,79.2,67.7,60.4,64.3,61.3,58.7,97,81,55,29.97,29.87,7,1,10,0.00
2013-9-13,65.9,63.2,60.0,62.0,60.6,58.7,98,91,86,29.94,29.85,7,1,10,0.00
2013-9-14,67.9,63.9,61.2,62.5,60.7,59.0,94,89,81,29.85,29.71,10,1,10,0.00
2013-9-15,65.1,61.4,57.6,62.5,59.9,57.0,99,95,89,29.78,29.68,10,2,13,0.17
2013-9-16,67.8,62.3,59.5,61.1,58.3,54.3,94,87,75,29.90,29.78,18,6,22,0.01
2013-9-17,62.3,59.9,58.2,56.1,54.2,52.0,89,82,70,29.90,29.83,10,1,13,0.00
2013-9-18,66.9,60.3,56.3,55.7,54.1,51.8,93,81,61,30.04,29.91,11,1,12,0.00
2013-9-19,77.3,62.2,51.7,59.2,53.2,49.6,94,75,38,30.02,29.72,8,1,10,0.00
2013-9-20,72.9,62.9,57.4,58.9,55.1,51.4,95,77,53,29.72,29.55,14,3,25,0.07
2013-9-21,68.6,61.4,56.9,57.9,55.6,53.5,93,82,61,29.69,29.61,12,3,16,0.01
2013-9-22,61.2,58.7,56.2,56.2,54.3,50.5,93,86,70,29.68,29.54,27,9,31,0.03
2013-9-23,60.5,57.6,55.3,54.8,53.1,48.6,92,85,75,29.92,29.68,21,8,28,0.01
2013-9-24,56.6,53.6,52.2,52.8,51.0,49.5,94,91,80,29.91,29.81,9,2,14,0.01
2013-9-25,58.2,52.6,50.7,51.3,49.5,47.4,94,90,68,29.98,29.81,10,1,14,0.01
2013-9-26,61.8,53.6,47.2,52.2,49.5,46.3,98,87,65,30.08,29.98,10,1,12,0.00
2013-9-27,57.7,55.2,51.6,53.8,51.2,47.5,93,86,80,30.07,29.79,18,7,27,0.01
2013-9-28,61.3,57.2,53.1,59.0,55.1,50.5,97,93,87,29.80,29.30,26,8,29,0.18
2013-9-29,59.0,54.7,53.5,53.3,50.7,48.3,94,86,75,29.52,29.12,24,10,33,0.24
2013-9-30,57.0,53.2,50.1,51.9,48.8,44.6,94,85,71,29.87,29.37,26,11,37,0.01
2013-10-1,57.1,52.4,49.2,50.0,47.6,44.8,93,84,64,30.05,29.86,23,8,28,0.01
2013-10-2,54.4,51.7,50.2,49.2,48.2,46.9,94,88,79,30.12,30.00,15,4,22,0.01
2013-10-3,57.2,52.1,47.3,49.0,47.6,45.9,95,85,69,30.40,30.13,8,1,10,0.00
2013-10-4,62.7,51.5,46.0,52.7,47.6,43.6,98,88,53,30.43,30.30,6,1,9,0.00
2013-10-5,69.3,55.3,46.8,53.0,49.5,46.0,98,83,51,30.31,30.10,5,0,9,0.00
2013-10-6,72.3,57.6,48.9,55.2,50.0,46.3,99,79,42,30.09,29.83,14,3,24,0.02
2013-10-7,59.7,55.7,53.9,52.7,50.5,45.9,94,83,62,29.97,29.86,21,9,25,0.07
2013-10-8,56.0,52.1,46.6,49.6,47.1,44.0,95,83,66,30.04,29.92,15,2,23,0.02
2013-10-9,56.2,47.4,42.2,48.7,45.1,41.6,99,92,69,30.10,29.91,7,1,8,0.00
2013-10-10,57.0,52.3,48.4,50.9,48.2,44.9,93,86,73,30.03,29.90,6,1,9,0.01
2013-10-11,55.3,52.2,50.3,51.3,49.9,48.9,97,92,82,30.11,30.03,3,0,5,0.01
2013-10-12,57.9,51.9,47.1,51.0,49.0,46.0,97,90,74,30.17,30.03,7,0,12,0.01
2013-10-13,55.1,49.2,44.2,49.5,46.7,43.6,98,92,76,30.33,30.17,10,1,12,0.00
2013-10-14,58.5,48.4,42.2,49.1,45.4,41.9,100,90,65,30.39,30.32,6,1,7,0.01
2013-10-15,58.8,49.7,43.6,51.9,47.2,42.8,99,92,68,30.35,30.14,9,0,11,0.00
2013-10-16,53.9,51.0,47.0,50.1,48.6,46.1,97,92,85,30.16,30.11,11,1,13,0.00
2013-10-17,55.1,50.5,47.0,50.4,48.3,46.0,97,92,83,30.24,30.16,9,2,11,0.00
2013-10-18,55.3,48.5,43.7,50.8,47.0,43.4,100,95,84,30.21,30.11,7,1,13,0.01
2013-10-19,50.5,47.2,44.6,49.1,46.4,44.0,100,97,93,30.16,30.11,6,1,7,0.00
2013-10-20,50.5,48.1,46.9,48.4,46.8,45.5,97,95,92,30.16,30.11,6,1,9,0.00
2013-10-21,51.3,49.1,46.6,49.3,47.9,45.7,98,96,92,30.13,30.06,7,2,7,0.00
2013-10-22,56.3,48.9,46.3,52.2,48.0,46.0,100,97,85,30.08,29.99,7,2,10,0.00
2013-10-23,57.3,48.2,44.8,52.6,47.3,44.7,100,97,81,30.02,29.94,6,1,7,0.01
2013-10-24,49.8,47.9,45.6,49.5,47.4,45.5,100,99,96,30.08,29.98,6,1,7,0.00
2013-10-25,52.3,49.6,47.3,49.8,48.1,46.7,99,95,90,30.24,30.09,7,1,9,0.00
2013-10-26,53.1,51.5,49.9,48.2,47.2,46.1,92,86,82,30.29,30.16,12,3,13,0.00
2013-10-27,56.2,50.6,47.2,49.8,47.2,45.5,100,89,72,30.16,29.86,14,2,21,0.01
2013-10-28,56.4,50.7,43.1,46.8,40.9,33.9,97,72,43,29.91,29.84,24,2,28,0.00
2013-10-29,57.0,45.7,38.5,44.5,40.2,37.1,97,83,51,30.00,29.91,6,1,9,0.00
2013-10-30,56.5,48.4,39.8,48.4,43.3,39.0,97,83,68,30.08,29.99,12,3,19,0.01
2013-10-31,55.1,52.4,50.1,52.2,49.1,44.6,95,89,75,30.21,30.05,17,3,22,0.01
2013-11-1,58.7,54.5,52.6,52.3,51.1,49.9,96,89,76,30.23,29.80,7,1,9,0.00
2013-11-2,54.8,51.3,45.6,52.0,46.2,40.5,97,83,68,29.83,29.45,34,8,43,0.02
2013-11-3,51.5,45.5,42.3,43.0,41.4,38.7,95,86,67,30.06,29.84,10,1,12,0.01
2013-11-4,48.8,44.3,38.6,42.1,39.6,35.6,100,85,63,30.15,30.02,5,1,7,0.03
2013-11-5,54.3,48.4,44.8,49.7,46.0,42.0,98,92,81,30.21,29.97,17,2,21,0.01
2013-11-6,51.0,48.5,45.0,47.9,45.7,43.9,96,90,82,30.28,29.99,6,0,9,0.04
2013-11-7,51.5,50.0,48.7,49.6,47.7,45.8,97,92,82,29.99,29.67,25,8,31,0.01
2013-11-8,54.0,49.9,45.9,46.2,45.0,43.7,94,84,72,30.11,29.93,13,3,17,0.00
2013-11-9,51.0,46.4,41.1,46.0,43.7,40.3,98,91,77,30.11,30.03,6,1,7,0.01
2013-11-10,49.3,47.4,45.6,46.6,45.2,43.9,96,92,87,30.11,30.05,10,2,12,0.01
2013-11-11,58.2,48.4,43.4,50.1,45.8,42.4,98,91,71,30.11,29.96,9,0,10,0.00
2013-11-12,58.5,52.8,45.6,53.9,50.1,44.5,97,91,82,30.31,29.98,16,4,22,0.01
2013-11-13,55.0,53.3,50.6,51.1,49.3,47.5,93,87,79,30.39,30.27,18,3,23,0.00
2013-11-14,50.5,47.6,44.4,48.1,46.3,43.8,100,96,90,30.27,30.02,6,0,10,0.01
2013-11-15,49.9,46.2,44.3,47.9,44.0,40.9,98,92,85,30.02,29.28,26,7,36,0.06
2013-11-16,48.8,45.7,42.4,45.2,40.3,38.1,96,82,68,29.72,29.31,16,5,20,0.01
2013-11-17,52.0,48.2,45.1,47.5,44.5,39.7,92,87,79,29.85,29.73,28,10,36,0.00
2013-11-18,53.0,50.2,48.1,51.5,48.7,45.7,98,95,88,29.85,29.51,15,5,25,0.09
2013-11-19,54.2,45.3,39.5,52.0,38.5,24.8,94,78,50,30.02,29.50,27,5,34,0.01
2013-11-20,43.1,38.4,34.7,32.9,29.4,25.0,84,71,50,30.46,30.03,14,2,16,0.00
2013-11-21,44.3,36.2,31.3,32.9,28.9,25.9,92,76,49,30.62,30.47,8,1,11,0.00
2013-11-22,46.2,38.0,32.0,33.6,30.3,27.8,89,75,50,30.61,30.42,7,1,12,0.00
2013-11-23,51.7,40.1,32.8,39.1,34.7,30.7,99,82,55,30.41,30.15,5,0,9,0.00
2013-11-24,50.1,40.5,34.1,44.4,37.9,33.0,98,91,76,30.21,30.12,5,0,8,0.00
2013-11-25,49.5,41.4,35.8,43.4,39.1,35.0,98,92,75,30.27,30.21,12,0,15,0.00
2013-11-26,48.9,43.0,36.8,45.3,40.6,36.5,99,92,74,30.22,30.06,5,1,6,0.01
2013-11-27,55.5,46.7,39.5,46.2,42.3,38.4,96,85,63,30.05,29.91,6,0,7,0.00
2013-11-28,45.2,40.6,37.4,45.1,40.1,36.4,100,98,96,30.13,29.98,4,0,6,0.00
2013-11-29,47.7,45.0,40.4,46.6,43.7,40.1,100,95,86,30.27,30.13,6,1,9,0.00
2013-11-30,51.4,48.9,46.3,48.8,45.8,44.1,95,89,84,30.28,30.05,20,7,26,0.04
2013-12-1,54.9,51.8,43.6,52.4,48.4,39.6,97,88,78,30.04,29.69,29,10,36,0.01
2013-12-2,44.1,40.6,37.4,39.6,36.0,33.4,95,84,66,30.02,29.77,13,4,15,0.07
2013-12-3,39.4,35.8,31.4,33.7,27.8,24.1,91,73,55,30.27,30.02,14,2,18,0.00
2013-12-4,37.3,31.9,28.3,29.0,27.1,24.9,94,83,64,30.31,30.25,5,0,9,0.01
2013-12-5,33.8,30.5,26.7,27.2,23.9,17.1,95,77,54,30.28,30.15,14,2,15,0.00
2013-12-6,32.3,29.2,25.1,18.4,13.9,10.9,60,52,43,30.19,30.10,17,9,22,0.00
2013-12-7,29.7,25.3,22.2,16.1,10.6,5.3,74,54,36,30.38,30.19,9,2,15,0.00
2013-12-8,32.8,27.4,21.8,23.5,19.2,15.4,82,71,56,30.53,30.38,5,0,6,0.00
2013-12-9,34.4,30.7,24.8,29.1,23.6,18.3,88,75,62,30.54,30.44,5,1,9,0.00
2013-12-10,39.4,36.6,32.7,35.2,32.6,26.3,89,86,77,30.45,30.37,6,1,9,0.00
2013-12-11,39.7,35.6,31.6,36.1,33.5,30.3,96,92,84,30.38,30.13,4,0,5,0.00
2013-12-12,42.5,38.4,33.3,42.3,36.9,32.5,100,95,78,30.12,30.01,10,2,13,0.04
2013-12-13,49.0,45.8,42.2,46.9,44.6,41.1,98,96,90,30.37,30.08,11,2,13,0.01
2013-12-14,49.2,46.9,45.0,45.9,44.4,43.0,96,91,85,30.39,30.28,11,3,14,0.00
2013-12-15,51.5,48.9,47.1,48.8,47.0,44.3,98,93,86,30.41,30.27,18,5,22,0.03
2013-12-16,47.0,44.4,40.6,46.4,43.5,40.3,100,97,91,30.45,30.24,5,1,6,0.00
2013-12-17,45.4,42.0,39.8,43.1,40.9,39.7,100,96,89,30.23,30.07,13,3,15,0.01
2013-12-18,44.7,42.8,39.1,42.7,38.2,33.1,95,84,66,30.11,29.99,14,2,21,0.01
2013-12-19,39.2,36.3,31.6,36.0,29.2,23.0,91,76,53,30.31,30.11,6,1,10,0.00
2013-12-20,42.7,37.4,32.6,42.4,35.5,29.2,99,93,77,30.16,29.67,18,4,33,0.07
2013-12-21,45.0,42.3,40.1,44.7,41.8,39.3,100,98,96,30.12,29.80,5,0,6,0.04
2013-12-22,50.2,47.4,45.0,49.3,47.1,44.7,100,99,94,30.25,30.11,17,3,23,0.02
2013-12-23,54.4,49.1,43.5,48.9,46.3,40.7,96,90,77,30.47,30.08,31,10,40,0.01
2013-12-24,46.1,40.7,35.5,42.4,38.8,34.7,98,93,81,30.58,30.47,5,0,7,0.00
2013-12-25,40.2,35.8,32.8,37.8,34.9,32.5,100,97,86,30.50,30.36,6,1,7,0.00
2013-12-26,42.6,38.2,35.8,40.4,37.4,35.2,99,97,92,30.36,30.16,4,0,6,0.00
2013-12-27,45.8,41.3,36.9,45.4,40.7,36.8,100,98,90,30.32,30.08,14,1,17,0.01
2013-12-28,47.0,43.5,38.4,44.4,42.3,37.6,100,96,85,30.48,30.33,5,0,7,0.00
2013-12-29,43.0,40.3,37.5,41.1,39.4,37.4,100,97,92,30.44,30.27,5,1,6,0.01
2013-12-30,44.9,42.2,39.7,42.9,41.0,39.2,99,96,90,30.28,30.09,17,1,20,0.00
2013-12-31,45.8,44.1,39.8,44.8,42.9,39.5,99,96,87,30.33,30.15,10,1,12,0.01
2014-1-1,43.3,40.9,37.5,42.6,40.5,37.4,100,99,95,30.37,30.21,5,0,7,0.01
2014-1-2,51.5,45.9,42.8,45.7,43.5,42.0,98,92,73,30.21,29.85,18,4,26,0.20